Weather History for Cape Girardeau, MO

Change the Weather History Date:

Thursday, November 1, 2012

  Actual Average Record
Temperature  
Mean Temperature 46 °F 53 °F  
Max Temperature 64 °F 65 °F 82 °F (1971)
Min Temperature 28 °F 41 °F 23 °F (1993)
Degree Days  
Heating Degree Days 19 13  
Month to date heating degree days 19 13  
Since 1 July heating degree days 364 316  
Cooling Degree Days 0 0  
Month to date cooling degree days 0 0  
Year to date cooling degree days 1784 1451  
Moisture  
Dew Point 32 °F    
Average Humidity 59    
Maximum Humidity 85    
Minimum Humidity 33    
Precipitation  
Precipitation 0.00 in 0.13 in 2.62 in (1984)
Month to date precipitation 0.00 0.13  
Year to date precipitation 23.96 38.25  
Sea Level Pressure  
Sea Level Pressure 29.99 in    
Wind  
Wind Speed 3 mph (SW)    
Max Wind Speed 12 mph    
Max Gust Speed 16 mph    
Visibility 10 miles    
Events      
T = Trace of Precipitation, MM = Missing Value Source: NWS Daily Summary

Daily Weather History Graph

Daily Weather History Graph

Search for Another Location

Airport:

Trip Planner

Search our weather history database for the weather conditions in past years. The results will help you decide how hot, cold, wet, or windy it might be!

Date:

Astronomy

Nov. 01, 2012 Rise Set
Actual Time 7:23 AM CDT 5:59 PM CDT
Civil Twilight 6:56 AM CDT 6:26 PM CDT
Nautical Twilight 6:25 AM CDT 6:57 PM CDT
Astronomical Twilight 5:55 AM CDT 7:28 PM CDT
Moon 7:59 PM CDT (11/1) 9:53 AM CDT (11/1)
Length of Visible Light 11h 30m
Length of Day
10h 36m
Waning Gibbous, 93% of the Moon is Illuminated
Nov 1
Waning Gibbous
Nov 6
Last Quarter
Nov 13
New
Nov 20
First Quarter
Nov 28
Full

Hourly Weather History & Observations

Time (CDT) Temp. Windchill Dew Point Humidity Pressure Visibility Wind Dir Wind Speed Gust Speed Precip Events Conditions
12:53 AM 33.1 °F 30.0 °F 26.1 °F 75% 29.99 in 10.0 mi SW 3.5 mph - N/A   Clear
1:53 AM 33.1 °F - 26.1 °F 75% 30.00 in 10.0 mi Calm Calm - N/A   Clear
2:53 AM 30.9 °F - 26.1 °F 82% 30.00 in 10.0 mi Calm Calm - N/A   Clear
3:53 AM 30.9 °F - 26.1 °F 82% 30.00 in 10.0 mi Calm Calm - N/A   Clear
4:53 AM 28.9 °F - 25.0 °F 85% 30.01 in 10.0 mi Calm Calm - N/A   Clear
5:53 AM 30.2 °F - 24.8 °F 80% 30.02 in 10.0 mi Calm Calm - N/A   Clear
6:53 AM 30.0 °F - 25.0 °F 82% 30.02 in 10.0 mi Calm Calm - N/A   Clear
7:53 AM 30.0 °F - 26.1 °F 85% 30.06 in 10.0 mi Calm Calm - N/A   Clear
8:53 AM 37.0 °F - 30.9 °F 79% 30.05 in 10.0 mi Calm Calm - N/A   Clear
9:53 AM 44.1 °F 42.5 °F 33.1 °F 65% 30.04 in 10.0 mi WSW 3.5 mph - N/A   Clear
10:53 AM 53.1 °F - 32.0 °F 45% 30.05 in 10.0 mi West 8.1 mph - N/A   Clear
11:53 AM 55.9 °F - 30.0 °F 37% 30.04 in 10.0 mi SSW 4.6 mph - N/A   Clear
12:53 PM 59.0 °F - 30.9 °F 35% 30.01 in 10.0 mi West 8.1 mph - N/A   Clear
1:53 PM 61.0 °F - 32.0 °F 34% 29.99 in 10.0 mi WSW 8.1 mph - N/A   Partly Cloudy
3:53 PM 61.0 °F - 35.1 °F 38% 29.95 in 7.0 mi SSW 6.9 mph - N/A   Overcast
4:53 PM 60.1 °F - 36.0 °F 41% 29.94 in 10.0 mi South 8.1 mph - N/A   Overcast
5:53 PM 57.9 °F - 37.0 °F 46% 29.93 in 10.0 mi South 4.6 mph - N/A   Overcast
6:53 PM 54.0 °F - 37.9 °F 55% 29.94 in 10.0 mi South 4.6 mph - N/A   Scattered Clouds
7:53 PM 52.0 °F - 37.9 °F 59% 29.92 in 10.0 mi South 6.9 mph - N/A   Clear
9:53 PM 48.9 °F - 37.9 °F 66% 29.93 in 10.0 mi Calm Calm - N/A   Clear
10:53 PM 48.0 °F - 39.0 °F 71% 29.91 in 10.0 mi Calm Calm - N/A   Clear
11:53 PM 46.9 °F - 39.0 °F 74% 29.91 in 10.0 mi West 3.5 mph - N/A   Clear